[[{"header":{"parameterUnit":"m.s-1","parameterCategory":2,"la1":30.2991,"la2":30.254,"lo1":-89.0895,"lo2":-89.0444,"dy":0.0017,"dx":0.0017,"nx":28,"ny":28,"refTime":"2024-08-04T21:00:00:Z","depth":"0","parameterNumber":2,"parameterNumberName":"U-component_of_CURRENTS"},"data":[0,0,0,0,0,0,0,0,0,0,0,0,0,0,0,0,0,0,0,0,0,0,0,0,0,0,0,0,0,0,0,0,0,0,0,0,0,0,0,0,0,0,0,0,0,0,0,0,0,0,0,0,0,0,0,0,0,0,0.3512,0.3512,0,0.3536,0.3536,0.3536,0.3545,0.3545,0.3545,0.3545,0.3493,0.3491,0.349,0,0,0,0,0,0,0,0,0,0,0,0,0,0.3469,0.347,0.3512,0.3513,0.3513,0.3536,0.3536,0.3536,0.3545,0.3545,0.3545,0.3545,0.3493,0.3491,0.349,0,0,0,0,0,0,0,0,0,0,0,0,0,0.3487,0.347,0.3512,0.3522,0.3523,0.3536,0.3536,0.3536,0.3544,0.3545,0.3545,0.3545,0.3494,0.3492,0.3489,0.347,0,0,0.3482,0.3481,0,0,0,0,0,0,0,0,0.3486,0.3489,0.352,0.3521,0.3523,0.354,0.3502,0.3511,0.3544,0.3534,0.3545,0.3545,0.3503,0.35,0.3501,0.3468,0.3465,0.3482,0.3481,0.348,0.3479,0,0,0,0,0,0,0,0.3485,0.3488,0.3519,0.3521,0.3522,0.3524,0.3527,0.3504,0.3513,0.3535,0.3536,0.3543,0.3503,0.3503,0.35,0.3465,0.3482,0.348,0.3479,0.3478,0.3455,0.3456,0,0,0,0,0,0,0.3488,0.3486,0.3518,0.352,0.3508,0.3525,0.3528,0.3532,0.3515,0.3514,0.3543,0.3543,0.3507,0.3502,0.3498,0.3513,0.348,0.3477,0.3476,0.3454,0.3455,0.3456,0,0,0,0,0,0,0.3487,0.349,0.3517,0.3506,0.351,0.3526,0.353,0.3532,0.3539,0.3523,0.352,0.3548,0.3507,0.3501,0.3484,0.3509,0.3476,0.3474,0.3453,0.3455,0.3456,0.3518,0,0,0,0,0,0,0.3485,0.3489,0.3492,0.3506,0.3511,0.3533,0.353,0.3533,0.3544,0.3545,0.3526,0.3521,0.3507,0.3488,0.3482,0.3506,0.3472,0.3452,0.3454,0.3455,0.3515,0.3521,0.3526,0,0,0,0,0,0.3483,0.3487,0.3492,0.3496,0.3514,0.3534,0.3537,0.3547,0.3544,0.3551,0.3536,0.3522,0.3494,0.3486,0.3479,0.3503,0.3452,0.3453,0.3455,0.3512,0.352,0.3526,0,0,0,0,0,0,0.3456,0.3489,0.3494,0.3503,0.3522,0.3537,0.3542,0.3549,0.3544,0.3539,0.352,0.3515,0.3518,0.3494,0.3486,0.3502,0.3475,0.3475,0.3521,0.3527,0.3533,0.3583,0.3471,0,0,0,0,0,0.3455,0.3465,0.3498,0.3497,0.3513,0.3527,0.3535,0.3545,0.3545,0.3544,0.353,0.3517,0.3519,0.3509,0.3502,0.3494,0.3542,0.3508,0.3514,0.3519,0.3556,0.3656,0.3676,0.3462,0.3462,0.3462,0,0,0.3432,0.3457,0.3456,0.3492,0.3504,0.3524,0.3531,0.3548,0.3563,0.3536,0.3537,0.3534,0.3522,0.3529,0.3528,0.3511,0.3602,0.3521,0.3526,0.356,0.3661,0.3682,0.3701,0.3463,0.3463,0.3463,0,0,0.3394,0.3428,0.3425,0.3456,0.3491,0.3516,0.3524,0.3547,0.3562,0.356,0.3563,0.3583,0.3546,0.3574,0.3575,0.3605,0.3635,0.359,0.3654,0.3751,0.3771,0.3789,0.3872,0.3897,0.3588,0.3588,0.3588,0,0.3367,0.3386,0.3424,0.3442,0.3477,0.3514,0.3535,0.3554,0.3564,0.3602,0.3563,0.3606,0.3579,0.3648,0.3655,0.3623,0.3681,0.3627,0.3763,0.3782,0.38,0.3881,0.3908,0.3591,0.3591,0.3591,0.359,0,0.333,0.3363,0.337,0.3415,0.3451,0.3482,0.3533,0.357,0.3589,0.362,0.3687,0.3674,0.3719,0.3702,0.3677,0.3794,0.3796,0.3766,0.3754,0.3826,0.3905,0.3933,0.3596,0.3595,0.3594,0.3593,0,0,0.324,0.3329,0.3336,0.3385,0.3459,0.3494,0.3545,0.3634,0.3699,0.3714,0.38,0.3811,0.3848,0.3856,0.3852,0.3914,0.4059,0.3892,0.3896,0.3991,0.4286,0.4254,0.428,0.4062,0.4067,0.4071,0.4291,0,0.321,0.3263,0.3312,0.3378,0.3429,0.3517,0.3574,0.3659,0.3719,0.3806,0.3863,0.3917,0.3894,0.3918,0.3997,0.4042,0.4135,0.4003,0.419,0.4196,0.4173,0.4313,0.4116,0.4294,0.4317,0.4322,0.4325,0,0.3171,0.323,0.3289,0.3432,0.3461,0.3499,0.3661,0.3715,0.3858,0.3902,0.4009,0.4049,0.4171,0.4108,0.4309,0.4231,0.4286,0.4312,0.432,0.4298,0.4216,0.4226,0.4342,0.4237,0.4367,0.4364,0.4361,0,0.3137,0.3232,0.3297,0.3337,0.3473,0.3531,0.3611,0.375,0.3841,0.3975,0.4064,0.4198,0.4288,0.4386,0.4472,0.4402,0.4682,0.4584,0.4626,0.4623,0.4498,0.4476,0.455,0.4758,0.4757,0.4757,0.4756,0,0.3129,0.3187,0.3289,0.3331,0.3433,0.3525,0.365,0.3743,0.3897,0.4015,0.4127,0.4245,0.4368,0.4532,0.4563,0.4717,0.4783,0.4698,0.4704,0.4509,0.4487,0.4419,0.436,0.4765,0.4763,0.4761,0.476,0,0.3104,0.3162,0.3249,0.3378,0.3421,0.3495,0.367,0.3765,0.3914,0.4075,0.4126,0.4346,0.4547,0.4692,0.4856,0.4857,0.4832,0.4993,0.4757,0.473,0.4597,0.4547,0.4492,0.4364,0.5057,0.5057,0.5058,0,0.3106,0.3143,0.3264,0.3312,0.337,0.3491,0.3579,0.3741,0.3837,0.412,0.4192,0.4463,0.4612,0.4902,0.494,0.5062,0.4912,0.4947,0.4766,0.4627,0.4577,0.4361,0.424,0.4623,0.462,0.4618,0.4616,0,0.3123,0.3152,0.3222,0.3306,0.3385,0.348,0.3606,0.368,0.3873,0.4031,0.4219,0.4362,0.4662,0.4713,0.4921,0.4938,0.4689,0.4902,0.4824,0.433,0.4037,0.39,0.4436,0.4595,0.4597,0.4599,0.46,0.46,0.3137,0.3173,0.3244,0.3317,0.3386,0.3434,0.3476,0.3607,0.3742,0.3924,0.4104,0.4273,0.4463,0.4707,0.4717,0.4622,0.4578,0.4477,0.446,0.428,0.4054,0.4556,0.4669,0.4672,0.4674,0.4676,0.4677,0,0.3185,0.321,0.3263,0.3323,0.334,0.339,0.3473,0.3483,0.3569,0.3777,0.3919,0.4079,0.4168,0.4296,0.4322,0.4205,0.3952,0.4106,0.3746,0.3672,0.4197,0.4074,0.3981,0.3981,0.3981,0.3981,0.3981,0.3981,0.3223,0.3265,0.3269,0.3264,0.3276,0.3265,0.3269,0.3285,0.3387,0.3486,0.3585,0.3722,0.394,0.4063,0.3977,0.3876,0.359,0.3428,0.3445,0.3811,0.3841,0.387,0.3741,0.358,0.3579,0.2715,0.2709,0.2704]},{"header":{"parameterUnit":"m.s-1","parameterCategory":2,"la1":30.2991,"la2":30.254,"lo1":-89.0895,"lo2":-89.0444,"dy":0.0017,"dx":0.0017,"nx":28,"ny":28,"refTime":"2024-08-04T21:00:00:Z","depth":"0","parameterNumber":3,"parameterNumberName":"V-component_of_CURRENTS"},"data":[0,0,0,0,0,0,0,0,0,0,0,0,0,0,0,0,0,0,0,0,0,0,0,0,0,0,0,0,0,0,0,0,0,0,0,0,0,0,0,0,0,0,0,0,0,0,0,0,0,0,0,0,0,0,0,0,0,0,-0.0367,-0.0368,0,-0.0399,-0.0399,-0.04,-0.0458,-0.0459,-0.046,-0.046,-0.0529,-0.053,-0.0531,0,0,0,0,0,0,0,0,0,0,0,0,0,-0.0396,-0.0395,-0.0367,-0.0368,-0.0368,-0.0399,-0.0399,-0.04,-0.0457,-0.0459,-0.046,-0.0461,-0.0529,-0.053,-0.0531,0,0,0,0,0,0,0,0,0,0,0,0,0,-0.0402,-0.0395,-0.0367,-0.0399,-0.0402,-0.0399,-0.0399,-0.04,-0.0457,-0.0459,-0.046,-0.0461,-0.0528,-0.053,-0.0531,-0.0511,0,0,-0.0535,-0.0536,0,0,0,0,0,0,0,0,-0.0402,-0.0402,-0.0394,-0.0397,-0.04,-0.0424,-0.0434,-0.0439,-0.0457,-0.0438,-0.046,-0.0462,-0.0495,-0.0499,-0.0504,-0.0515,-0.0518,-0.0536,-0.0536,-0.0537,-0.0537,0,0,0,0,0,0,0,-0.0401,-0.0401,-0.0382,-0.0394,-0.0398,-0.0425,-0.0427,-0.0436,-0.046,-0.044,-0.0444,-0.0444,-0.0498,-0.0503,-0.0506,-0.0519,-0.0536,-0.0537,-0.0538,-0.0538,-0.0532,-0.0531,0,0,0,0,0,0,-0.039,-0.04,-0.0381,-0.0382,-0.0403,-0.0423,-0.0425,-0.0416,-0.046,-0.0467,-0.0443,-0.0446,-0.0499,-0.0505,-0.0509,-0.0499,-0.0537,-0.0538,-0.0539,-0.0533,-0.0532,-0.0531,0,0,0,0,0,0,-0.039,-0.0388,-0.0379,-0.0391,-0.0392,-0.042,-0.041,-0.0416,-0.0424,-0.0461,-0.047,-0.0444,-0.0501,-0.0507,-0.0511,-0.0502,-0.0539,-0.054,-0.0534,-0.0533,-0.0531,-0.0473,0,0,0,0,0,0,-0.0391,-0.0387,-0.0372,-0.039,-0.0391,-0.0361,-0.0409,-0.0416,-0.0421,-0.0426,-0.0464,-0.0472,-0.0502,-0.0509,-0.0512,-0.0505,-0.0541,-0.0535,-0.0533,-0.0532,-0.0476,-0.0469,-0.0464,0,0,0,0,0,-0.0392,-0.0356,-0.0371,-0.0369,-0.037,-0.0359,-0.0361,-0.0389,-0.0419,-0.0405,-0.0439,-0.0471,-0.05,-0.0508,-0.0513,-0.0506,-0.0536,-0.0534,-0.0532,-0.0479,-0.0471,-0.0464,0,0,0,0,0,0,-0.0341,-0.0359,-0.0376,-0.0343,-0.0346,-0.0368,-0.0351,-0.0381,-0.0396,-0.0403,-0.0454,-0.0462,-0.0464,-0.0486,-0.0494,-0.0497,-0.0525,-0.0523,-0.0483,-0.0475,-0.0469,-0.0463,-0.0543,0,0,0,0,0,-0.0326,-0.0312,-0.0331,-0.0298,-0.0299,-0.0327,-0.0327,-0.0346,-0.0364,-0.0373,-0.0404,-0.0434,-0.0456,-0.0466,-0.0481,-0.0477,-0.05,-0.0476,-0.047,-0.0465,-0.0462,-0.0501,-0.0498,-0.0523,-0.0523,-0.0523,0,0,-0.0292,-0.0301,-0.029,-0.0288,-0.0294,-0.0278,-0.033,-0.0316,-0.0312,-0.0376,-0.0374,-0.0409,-0.0448,-0.0449,-0.0452,-0.0468,-0.0462,-0.0462,-0.0458,-0.0457,-0.0498,-0.0496,-0.0494,-0.0522,-0.0522,-0.0522,0,0,-0.0217,-0.0228,-0.0197,-0.0199,-0.0205,-0.0227,-0.0222,-0.0243,-0.0262,-0.026,-0.0315,-0.0346,-0.0361,-0.0402,-0.0423,-0.0389,-0.0426,-0.039,-0.0359,-0.0396,-0.0395,-0.0394,-0.0388,-0.0387,-0.0391,-0.039,-0.039,0,-0.0178,-0.0148,-0.018,-0.0153,-0.0154,-0.0201,-0.0173,-0.0188,-0.021,-0.0228,-0.0245,-0.0304,-0.0342,-0.0372,-0.0367,-0.0378,-0.0388,-0.0385,-0.0389,-0.0389,-0.039,-0.0384,-0.0384,-0.0387,-0.0388,-0.0388,-0.0388,0,-0.0089,-0.007,-0.0045,-0.0042,-0.0042,-0.002,-0.0055,-0.0062,-0.0099,-0.013,-0.016,-0.0216,-0.0257,-0.0277,-0.0313,-0.0337,-0.0338,-0.0376,-0.041,-0.0384,-0.0379,-0.038,-0.0383,-0.0384,-0.0385,-0.0386,0,0,-0.0001,0.001,0.0017,0.0022,0.0009,0.0017,0.0023,0.0001,-0.0,-0.0043,-0.005,-0.0119,-0.0168,-0.0195,-0.0254,-0.0297,-0.0307,-0.0332,-0.0336,-0.0328,-0.0354,-0.0304,-0.03,-0.0349,-0.035,-0.035,-0.0338,0,0.0071,0.013,0.0111,0.0157,0.0175,0.0125,0.0136,0.0107,0.0073,0.0061,-0.0028,-0.0049,-0.0131,-0.0149,-0.0207,-0.0274,-0.0312,-0.0305,-0.0379,-0.038,-0.0342,-0.0302,-0.0263,-0.0246,-0.0339,-0.034,-0.034,0,0.0149,0.0173,0.0228,0.0228,0.0232,0.0248,0.023,0.0238,0.0196,0.0167,0.0111,0.0056,-0.0011,-0.0082,-0.0195,-0.0182,-0.0264,-0.0325,-0.0327,-0.0305,-0.0333,-0.0294,-0.0245,-0.0467,-0.0342,-0.0342,-0.0342,0,0.0198,0.0241,0.0278,0.0284,0.0291,0.0295,0.0294,0.0267,0.0293,0.0237,0.0265,0.0147,0.0137,0.0,-0.0114,-0.0158,-0.0215,-0.0296,-0.0328,-0.0324,-0.0318,-0.0312,-0.0498,-0.0387,-0.0387,-0.0387,-0.0387,0,0.0257,0.0287,0.0305,0.0326,0.038,0.0352,0.0406,0.038,0.0392,0.0467,0.0331,0.0378,0.0156,0.0104,-0.0054,-0.0153,-0.0168,-0.0304,-0.032,-0.029,-0.0283,-0.0498,-0.0614,-0.0387,-0.0387,-0.0387,-0.0387,0,0.0297,0.0312,0.0363,0.0388,0.0407,0.0443,0.051,0.0565,0.0546,0.065,0.065,0.057,0.0514,0.0326,0.0141,-0.0029,-0.0266,-0.0209,-0.013,-0.0138,-0.0399,-0.0511,-0.0664,-0.0764,-0.0256,-0.0255,-0.0254,0,0.0319,0.0352,0.0421,0.0488,0.0504,0.0569,0.0643,0.0641,0.0723,0.08,0.0878,0.0841,0.0883,0.064,0.0327,0.0089,-0.016,-0.0091,-0.0196,-0.039,-0.0529,-0.062,-0.0702,-0.0155,-0.0153,-0.0152,-0.015,0,0.0375,0.0401,0.0457,0.0592,0.068,0.0787,0.0887,0.0977,0.1031,0.1154,0.13,0.1342,0.112,0.0893,0.0526,0.0318,-0.023,-0.0068,-0.0313,-0.049,-0.0558,-0.0668,-0.0164,-0.0137,-0.0139,-0.014,-0.014,-0.0141,0.0433,0.0492,0.059,0.0715,0.0839,0.1002,0.1113,0.1271,0.1462,0.1693,0.1676,0.1835,0.14,0.0923,0.0573,-0.0072,-0.0103,-0.0301,-0.0421,-0.0497,-0.0601,-0.0035,-0.0005,-0.0005,-0.0006,-0.0006,-0.0006,0,0.0513,0.0594,0.072,0.0882,0.1042,0.1077,0.1291,0.1446,0.1731,0.1995,0.2184,0.213,0.1604,0.0987,0.012,-0.036,-0.058,-0.0636,-0.0809,-0.0882,-0.0414,-0.0422,-0.0426,-0.0426,-0.0426,-0.0425,-0.0425,-0.0425,0.0569,0.0697,0.0758,0.103,0.1158,0.1373,0.1505,0.1777,0.2007,0.2392,0.2566,0.2647,0.2145,0.0586,-0.0525,-0.0791,-0.1154,-0.119,-0.1397,-0.114,-0.1121,-0.1103,-0.1142,-0.1297,-0.1298,-0.1823,-0.1828,-0.1832]}],[{"header":{"parameterUnit":"m.s-1","parameterCategory":2,"la1":30.2991,"la2":30.254,"lo1":-89.0895,"lo2":-89.0444,"dy":0.0017,"dx":0.0017,"nx":28,"ny":28,"refTime":"2024-08-04T21:00:00:Z","depth":"2","parameterNumber":2,"parameterNumberName":"U-component_of_CURRENTS"},"data":[0,0,0,0,0,0,0,0,0,0,0,0,0,0,0,0,0,0,0,0,0,0,0,0,0,0,0,0,0,0,0,0,0,0,0,0,0,0,0,0,0,0,0,0,0,0,0,0,0,0,0,0,0,0,0,0,0,0,0.2713,0.2714,0,0.2705,0.2704,0.2704,0.2715,0.2716,0.2718,0.2719,0.2748,0.2748,0.2747,0,0,0,0,0,0,0,0,0,0,0,0,0,0.2665,0.2666,0.2713,0.2714,0.2714,0.2705,0.2704,0.2703,0.2715,0.2716,0.2718,0.2719,0.2748,0.2748,0.2747,0,0,0,0,0,0,0,0,0,0,0,0,0,0.2667,0.2666,0.2713,0.2725,0.2727,0.2705,0.2704,0.2703,0.2715,0.2717,0.2718,0.272,0.2748,0.2748,0.2747,0.2709,0,0,0.2746,0.2745,0,0,0,0,0,0,0,0,0.2667,0.2667,0.2723,0.2725,0.2726,0.272,0.2699,0.271,0.2714,0.271,0.2719,0.2721,0.2746,0.2746,0.2728,0.271,0.2711,0.2746,0.2745,0.2745,0.2745,0,0,0,0,0,0,0,0.2667,0.2668,0.2701,0.2724,0.2726,0.2707,0.2709,0.27,0.2713,0.2711,0.2714,0.2726,0.2747,0.2728,0.2729,0.2712,0.2746,0.2745,0.2745,0.2745,0.2783,0.2784,0,0,0,0,0,0,0.2687,0.2668,0.2702,0.2702,0.271,0.2707,0.2709,0.2714,0.2712,0.2716,0.2724,0.2727,0.2728,0.273,0.273,0.2791,0.2745,0.2745,0.2744,0.2782,0.2783,0.2785,0,0,0,0,0,0,0.2685,0.2689,0.2702,0.2692,0.2693,0.2708,0.2712,0.2713,0.2711,0.2723,0.2726,0.2726,0.273,0.2731,0.2758,0.2789,0.2744,0.2744,0.278,0.2782,0.2784,0.2846,0,0,0,0,0,0,0.2684,0.2688,0.2696,0.2693,0.2695,0.2712,0.2711,0.2712,0.2719,0.2722,0.2725,0.2729,0.2731,0.2759,0.2757,0.2788,0.2744,0.2779,0.2781,0.2783,0.2842,0.285,0.2856,0,0,0,0,0,0.2682,0.2678,0.2696,0.27,0.2705,0.2714,0.2712,0.2722,0.2718,0.2723,0.2737,0.2729,0.2774,0.2759,0.2757,0.2788,0.2777,0.278,0.2783,0.2839,0.2848,0.2856,0,0,0,0,0,0,0.2651,0.268,0.2699,0.2703,0.2725,0.272,0.2717,0.2723,0.2729,0.2739,0.2737,0.2742,0.2781,0.277,0.2754,0.2808,0.2777,0.278,0.282,0.2828,0.2835,0.2875,0.2743,0,0,0,0,0,0.2653,0.2667,0.2692,0.27,0.2705,0.2711,0.2713,0.2731,0.274,0.2743,0.2753,0.2766,0.2785,0.2797,0.2809,0.2825,0.286,0.2847,0.2854,0.286,0.2892,0.2966,0.2983,0.2795,0.2795,0.2794,0,0,0.2637,0.2663,0.2666,0.2697,0.27,0.2715,0.2714,0.273,0.2758,0.2746,0.2775,0.2789,0.2795,0.2831,0.2847,0.283,0.2933,0.2863,0.2868,0.2898,0.2971,0.299,0.3006,0.2797,0.2796,0.2796,0,0,0.2619,0.2641,0.2646,0.2672,0.2711,0.2721,0.2731,0.2748,0.2771,0.28,0.2814,0.2857,0.2855,0.2894,0.2903,0.2952,0.2968,0.2944,0.3012,0.3082,0.3099,0.3114,0.319,0.3212,0.2947,0.2947,0.2947,0,0.2606,0.2626,0.2648,0.2671,0.2702,0.2725,0.2749,0.2764,0.2799,0.2843,0.2824,0.2891,0.2892,0.2967,0.2992,0.2971,0.3015,0.2977,0.3094,0.311,0.3124,0.3198,0.3221,0.295,0.295,0.295,0.2949,0,0.2597,0.2624,0.2626,0.2673,0.2706,0.273,0.2778,0.2819,0.2845,0.2881,0.2966,0.2979,0.3039,0.3032,0.3024,0.3133,0.3132,0.3095,0.3076,0.3148,0.322,0.3243,0.2955,0.2954,0.2953,0.2952,0,0,0.2544,0.2608,0.2616,0.267,0.2722,0.2764,0.2812,0.289,0.2949,0.2992,0.3085,0.312,0.3161,0.3178,0.3186,0.3237,0.3369,0.3217,0.3219,0.33,0.3545,0.3419,0.3432,0.3353,0.3357,0.336,0.3557,0,0.2537,0.2588,0.2628,0.2704,0.2736,0.2809,0.2854,0.2943,0.2999,0.3093,0.3158,0.3229,0.3205,0.3247,0.3309,0.3358,0.3432,0.3321,0.3459,0.3464,0.3349,0.3455,0.318,0.332,0.3579,0.3583,0.3586,0,0.2518,0.257,0.2624,0.2758,0.2781,0.2835,0.2971,0.3029,0.3153,0.3192,0.3298,0.335,0.348,0.3419,0.3585,0.3518,0.3559,0.3576,0.3583,0.3465,0.338,0.3289,0.3352,0.3624,0.3621,0.3618,0.3616,0,0.2487,0.2587,0.2645,0.2683,0.2802,0.2877,0.2961,0.307,0.3148,0.3286,0.3361,0.3492,0.3593,0.3662,0.3719,0.3676,0.3871,0.3812,0.3745,0.3737,0.3531,0.3497,0.394,0.3939,0.3939,0.3938,0.3938,0,0.2471,0.2537,0.2648,0.2688,0.2785,0.2896,0.301,0.3086,0.323,0.3322,0.3439,0.3527,0.366,0.3779,0.3796,0.3852,0.395,0.3802,0.3791,0.3542,0.3507,0.3779,0.3758,0.3946,0.3944,0.3943,0.3941,0,0.2441,0.2486,0.2576,0.2718,0.2762,0.2851,0.3031,0.3122,0.3246,0.3379,0.344,0.3632,0.3756,0.3858,0.398,0.3956,0.3995,0.3981,0.3682,0.3631,0.3806,0.3786,0.3968,0.3965,0.3963,0.3961,0.396,0,0.2439,0.2459,0.2586,0.2634,0.2708,0.2843,0.292,0.3078,0.3172,0.3401,0.3469,0.3673,0.3745,0.3909,0.3891,0.3933,0.3979,0.3692,0.3546,0.3844,0.3816,0.3798,0.3782,0.3317,0.3311,0.3305,0.3301,0,0.2449,0.2473,0.2552,0.2617,0.2705,0.279,0.2934,0.2994,0.3173,0.3274,0.3401,0.3495,0.367,0.359,0.3668,0.3635,0.3656,0.358,0.401,0.3322,0.3237,0.3206,0.321,0.3252,0.3257,0.3261,0.3263,0.3265,0.246,0.2492,0.2562,0.2624,0.2691,0.2728,0.2752,0.2888,0.2967,0.3076,0.3224,0.3262,0.3347,0.3315,0.3225,0.3176,0.3417,0.3275,0.329,0.3311,0.3169,0.3082,0.3044,0.3048,0.3051,0.3053,0.3056,0,0.2477,0.2514,0.2577,0.2604,0.2616,0.2679,0.2745,0.272,0.2729,0.2855,0.2912,0.273,0.2728,0.2802,0.2667,0.2678,0.2633,0.256,0.2483,0.2535,0.2581,0.2398,0.2072,0.2068,0.2064,0.2061,0,0,0.2486,0.2529,0.2537,0.2513,0.2528,0.2489,0.2478,0.2438,0.2474,0.2403,0.2406,0.2624,0.2749,0.2375,0.2337,0.2179,0.2328,0.2094,0.2898,0.2862,0.2902,0.3024,0.2806,0,0,0,0,0]},{"header":{"parameterUnit":"m.s-1","parameterCategory":2,"la1":30.2991,"la2":30.254,"lo1":-89.0895,"lo2":-89.0444,"dy":0.0017,"dx":0.0017,"nx":28,"ny":28,"refTime":"2024-08-04T21:00:00:Z","depth":"2","parameterNumber":3,"parameterNumberName":"V-component_of_CURRENTS"},"data":[0,0,0,0,0,0,0,0,0,0,0,0,0,0,0,0,0,0,0,0,0,0,0,0,0,0,0,0,0,0,0,0,0,0,0,0,0,0,0,0,0,0,0,0,0,0,0,0,0,0,0,0,0,0,0,0,0,0,0.0165,0.0164,0,0.0106,0.0105,0.0105,0.0064,0.0063,0.0063,0.0063,-0.0054,-0.0057,-0.006,0,0,0,0,0,0,0,0,0,0,0,0,0,0.0195,0.0195,0.0165,0.0164,0.0163,0.0106,0.0105,0.0105,0.0064,0.0063,0.0063,0.0062,-0.0054,-0.0057,-0.006,0,0,0,0,0,0,0,0,0,0,0,0,0,0.0164,0.0195,0.0165,0.0135,0.0132,0.0106,0.0105,0.0104,0.0064,0.0063,0.0063,0.0062,-0.0052,-0.0056,-0.006,-0.0074,0,0,-0.0073,-0.0075,0,0,0,0,0,0,0,0,0.0166,0.0164,0.014,0.0137,0.0133,0.0091,0.0073,0.0042,0.0064,0.0091,0.0063,0.0062,-0.0012,-0.0019,-0.0026,-0.0079,-0.0084,-0.0073,-0.0076,-0.0078,-0.0079,0,0,0,0,0,0,0,0.0169,0.0166,0.0142,0.0139,0.0135,0.0108,0.0104,0.0067,0.0044,0.0088,0.0085,0.0077,-0.0014,-0.0022,-0.003,-0.0086,-0.0073,-0.0077,-0.0079,-0.0081,-0.0172,-0.0171,0,0,0,0,0,0,0.0177,0.0168,0.0144,0.0141,0.0147,0.0108,0.0104,0.0106,0.0045,0.0035,0.0078,0.0075,-0.0015,-0.0025,-0.0034,-0.006,-0.0078,-0.0081,-0.0084,-0.0172,-0.0172,-0.0171,0,0,0,0,0,0,0.0178,0.0176,0.0147,0.0151,0.0146,0.0109,0.0111,0.0105,0.0095,0.0037,0.0027,0.0074,-0.0016,-0.0028,-0.007,-0.0065,-0.0083,-0.0087,-0.0172,-0.0172,-0.0171,-0.0109,0,0,0,0,0,0,0.0179,0.0177,0.0181,0.0152,0.0146,0.0133,0.0112,0.0104,0.009,0.0087,0.0031,0.0019,-0.0017,-0.0064,-0.0074,-0.0071,-0.009,-0.0172,-0.0172,-0.0172,-0.0111,-0.0107,-0.0103,0,0,0,0,0,0.0181,0.0191,0.0182,0.0178,0.0153,0.0134,0.0128,0.01,0.0091,0.0089,0.0048,0.0021,-0.007,-0.0067,-0.0079,-0.0077,-0.0172,-0.0172,-0.0172,-0.0113,-0.0108,-0.0103,0,0,0,0,0,0,0.0203,0.0186,0.0176,0.018,0.0158,0.0126,0.0124,0.0105,0.0074,0.007,0.0018,0.0004,-0.003,-0.0063,-0.0058,-0.0103,-0.0124,-0.0126,-0.0075,-0.0071,-0.0067,-0.0035,-0.0094,0,0,0,0,0,0.0211,0.0214,0.019,0.0191,0.0188,0.0158,0.0147,0.0127,0.0096,0.0083,0.0043,-0.0,-0.0038,-0.0061,-0.01,-0.0126,-0.0149,-0.0132,-0.0128,-0.0125,-0.0107,-0.0137,-0.0134,-0.0171,-0.0171,-0.0171,0,0,0.0218,0.0209,0.021,0.0195,0.0182,0.0183,0.0151,0.0139,0.0136,0.0073,0.0057,0.0011,-0.0042,-0.0071,-0.0089,-0.0099,-0.0129,-0.0124,-0.0121,-0.0105,-0.0137,-0.0133,-0.0129,-0.0171,-0.0171,-0.0171,0,0,0.0237,0.0232,0.0243,0.0234,0.0215,0.0199,0.0199,0.017,0.0155,0.0128,0.0085,0.0046,-0.0012,-0.0046,-0.0071,-0.0067,-0.0106,-0.0084,-0.0038,-0.0068,-0.0065,-0.0062,-0.0093,-0.0094,-0.0082,-0.0082,-0.0081,0,0.0245,0.0263,0.0241,0.0251,0.0253,0.0213,0.023,0.0208,0.0164,0.0162,0.013,0.0061,0.0005,-0.0017,-0.0024,-0.0056,-0.008,-0.0051,-0.0061,-0.0059,-0.0057,-0.009,-0.0091,-0.0079,-0.0079,-0.0079,-0.0079,0,0.0274,0.029,0.0299,0.0304,0.0298,0.0306,0.028,0.0272,0.0248,0.0223,0.0196,0.0122,0.0085,0.0054,0.001,-0.0003,-0.0026,-0.0051,-0.0068,-0.0049,-0.0086,-0.0088,-0.0074,-0.0075,-0.0076,-0.0077,0,0,0.0293,0.0318,0.0322,0.0349,0.0334,0.0341,0.034,0.0339,0.0364,0.0296,0.0314,0.0225,0.0189,0.0158,0.0098,0.0063,0.0034,0.0013,0.001,-0.0007,-0.0031,-0.0057,-0.0063,0.0007,0.0007,0.0007,-0.0063,0,0.0328,0.0379,0.037,0.0417,0.0451,0.0427,0.0449,0.0436,0.0411,0.0413,0.0334,0.0316,0.0227,0.0212,0.0161,0.0075,0.0032,0.0056,-0.0055,-0.0058,-0.0075,-0.0066,-0.0041,-0.0102,-0.0066,-0.0066,-0.0067,0,0.0363,0.04,0.0462,0.052,0.0534,0.0548,0.0592,0.06,0.0581,0.0569,0.0522,0.0453,0.0385,0.0308,0.0174,0.0195,0.0088,0.0013,0.0008,-0.0034,-0.0088,-0.0115,-0.0108,-0.0071,-0.0071,-0.0071,-0.007,0,0.0414,0.0466,0.0527,0.0541,0.0592,0.0619,0.0642,0.0649,0.0691,0.0659,0.0684,0.0578,0.0547,0.0401,0.022,0.0198,0.008,0.0028,-0.0096,-0.01,-0.0108,-0.0112,-0.0066,-0.0066,-0.0065,-0.0065,-0.0065,0,0.0464,0.0514,0.0562,0.0598,0.07,0.0694,0.0788,0.0798,0.0827,0.09,0.0768,0.0794,0.057,0.046,0.0274,0.0092,0.0115,-0.0078,-0.0115,-0.0088,-0.0089,-0.0085,-0.0086,-0.0068,-0.0067,-0.0067,-0.0066,0,0.0512,0.0539,0.0625,0.0695,0.0729,0.0798,0.0899,0.0967,0.098,0.1065,0.106,0.0964,0.0819,0.0586,0.036,0.0186,-0.0003,-0.008,-0.0035,-0.0065,-0.018,-0.0178,-0.0224,-0.0225,-0.0227,-0.0228,-0.0228,0,0.0542,0.0594,0.0703,0.0773,0.0808,0.0911,0.1,0.1047,0.1123,0.1182,0.1233,0.1112,0.1042,0.0694,0.0363,0.0042,-0.0003,-0.014,-0.0188,-0.0163,-0.0194,-0.019,-0.0186,-0.0181,-0.0181,-0.0182,-0.0182,0,0.0614,0.0651,0.0725,0.0873,0.0972,0.1095,0.1209,0.1302,0.1373,0.1438,0.1489,0.1428,0.1097,0.0767,0.033,0.0112,-0.0092,-0.0157,-0.013,-0.0143,-0.0128,-0.0157,-0.0153,-0.0185,-0.0184,-0.0184,-0.0184,-0.0184,0.0669,0.0742,0.0846,0.0984,0.1106,0.1256,0.1367,0.1486,0.1625,0.1721,0.166,0.1574,0.1213,0.0634,0.0269,-0.0116,-0.011,-0.0251,-0.0248,-0.0245,-0.0225,-0.0213,-0.0282,-0.0283,-0.0283,-0.0283,-0.0283,0,0.0746,0.0829,0.0955,0.1117,0.125,0.1304,0.1497,0.1603,0.1768,0.1825,0.1833,0.1471,0.1101,0.0691,0.0119,-0.0221,-0.0247,-0.0327,-0.0282,-0.0277,-0.0273,-0.0254,-0.032,-0.0321,-0.0322,-0.0322,0,0,0.0793,0.0922,0.0987,0.1209,0.1321,0.1509,0.1624,0.1778,0.1862,0.1896,0.1833,0.1704,0.1213,0.0796,0.0332,0.001,-0.0053,-0.0056,0.0009,0.0122,0.013,-0.0198,-0.0158,0,0,0,0,0]}],[{"header":{"parameterUnit":"m.s-1","parameterCategory":2,"la1":30.2991,"la2":30.254,"lo1":-89.0895,"lo2":-89.0444,"dy":0.0017,"dx":0.0017,"nx":28,"ny":28,"refTime":"2024-08-04T21:00:00:Z","depth":"4","parameterNumber":2,"parameterNumberName":"U-component_of_CURRENTS"},"data":[0,0,0,0,0,0,0,0,0,0,0,0,0,0,0,0,0,0,0,0,0,0,0,0,0,0,0,0,0,0,0,0,0,0,0,0,0,0,0,0,0,0,0,0,0,0,0,0,0,0,0,0,0,0,0,0,0,0,0.1526,0.1527,0,0.1593,0.1594,0.1594,0.1648,0.1649,0.165,0.1651,0.1763,0.1765,0.1767,0,0,0,0,0,0,0,0,0,0,0,0,0,0.1429,0.1431,0.1526,0.1527,0.1528,0.1593,0.1594,0.1594,0.1648,0.1649,0.165,0.1651,0.1762,0.1765,0.1767,0,0,0,0,0,0,0,0,0,0,0,0,0,0.148,0.1431,0.1526,0.1564,0.1568,0.1593,0.1594,0.1594,0.1648,0.1649,0.165,0.1651,0.1761,0.1764,0.1768,0.1767,0,0,0.1778,0.178,0,0,0,0,0,0,0,0,0.1477,0.1483,0.1557,0.1561,0.1566,0.1615,0.1601,0.1655,0.1648,0.1616,0.1651,0.1652,0.1718,0.1725,0.1732,0.1773,0.1777,0.1779,0.1781,0.1782,0.1783,0,0,0,0,0,0,0,0.1473,0.148,0.1551,0.1558,0.1564,0.1573,0.1581,0.1611,0.1659,0.1619,0.1623,0.1633,0.172,0.1728,0.1735,0.1779,0.1779,0.1782,0.1784,0.1785,0.1942,0.1944,0,0,0,0,0,0,0.1468,0.1477,0.1549,0.1553,0.1525,0.1574,0.1583,0.1597,0.1658,0.1669,0.1632,0.1636,0.1722,0.1731,0.1739,0.184,0.1782,0.1785,0.1787,0.194,0.1942,0.1945,0,0,0,0,0,0,0.1466,0.1474,0.1546,0.1517,0.1528,0.1575,0.1589,0.1598,0.1646,0.1668,0.168,0.1678,0.1723,0.1734,0.181,0.1841,0.1787,0.179,0.1938,0.1941,0.1944,0.1979,0,0,0,0,0,0,0.1463,0.1473,0.1498,0.1517,0.1529,0.1593,0.1589,0.1598,0.1649,0.1655,0.171,0.1719,0.1725,0.1805,0.1814,0.1845,0.1793,0.1935,0.1939,0.1943,0.1975,0.1983,0.1989,0,0,0,0,0,0.1459,0.1484,0.1498,0.1508,0.1556,0.1594,0.1602,0.1637,0.1651,0.1683,0.1725,0.172,0.1836,0.181,0.182,0.1852,0.1933,0.1938,0.1942,0.1972,0.1981,0.1989,0,0,0,0,0,0,0.1462,0.1493,0.1509,0.1545,0.1583,0.1605,0.164,0.1659,0.1715,0.1732,0.175,0.1763,0.1839,0.1847,0.1818,0.1911,0.1882,0.1889,0.1902,0.1911,0.1918,0.1888,0.1796,0,0,0,0,0,0.1471,0.1499,0.1531,0.1566,0.1588,0.1621,0.1647,0.1672,0.1713,0.174,0.1781,0.1823,0.1858,0.1888,0.1924,0.1977,0.1988,0.2004,0.2012,0.2017,0.2002,0.2046,0.2055,0.196,0.196,0.196,0,0,0.1483,0.1504,0.1522,0.1569,0.1601,0.1632,0.1641,0.1695,0.1727,0.1743,0.1822,0.1858,0.1881,0.194,0.1974,0.1956,0.206,0.2023,0.2028,0.2008,0.2052,0.2061,0.2069,0.1963,0.1963,0.1962,0,0,0.1505,0.1542,0.1569,0.16,0.1654,0.1671,0.1696,0.1748,0.1786,0.1856,0.1872,0.1926,0.1997,0.2007,0.2019,0.2089,0.21,0.2116,0.2124,0.2168,0.2175,0.2182,0.2242,0.2253,0.2115,0.2115,0.2115,0,0.1522,0.1546,0.1586,0.1617,0.1637,0.1692,0.1717,0.1764,0.1838,0.1868,0.1895,0.1992,0.2016,0.2056,0.2078,0.2101,0.2139,0.2085,0.2175,0.2181,0.2187,0.2247,0.2259,0.2117,0.2117,0.2117,0.2116,0,0.1548,0.1579,0.1601,0.1648,0.1683,0.1718,0.1772,0.1835,0.1887,0.1923,0.2008,0.2049,0.2102,0.212,0.2118,0.2172,0.2193,0.2181,0.2145,0.2198,0.2259,0.2271,0.212,0.212,0.2119,0.2118,0,0,0.1541,0.1603,0.1611,0.1626,0.1694,0.1719,0.1791,0.1849,0.1905,0.1986,0.2047,0.2099,0.2137,0.2152,0.2171,0.2195,0.2278,0.2207,0.2208,0.2253,0.2404,0.2256,0.2255,0.2292,0.2293,0.2294,0.2442,0,0.1544,0.1579,0.1615,0.1654,0.167,0.1735,0.1793,0.1863,0.1943,0.2033,0.2077,0.2159,0.2147,0.2195,0.2217,0.2271,0.2306,0.224,0.2357,0.236,0.2209,0.2261,0.2299,0.2451,0.2453,0.2455,0.2457,0,0.154,0.156,0.159,0.1637,0.1655,0.1702,0.1793,0.1856,0.1984,0.2055,0.2137,0.22,0.2267,0.2253,0.2353,0.2322,0.2362,0.2388,0.2394,0.2239,0.2231,0.238,0.2478,0.2476,0.2475,0.2473,0.2472,0,0.1479,0.1532,0.1547,0.1565,0.1645,0.1687,0.1745,0.1867,0.1938,0.2091,0.2178,0.2259,0.2346,0.2388,0.2449,0.2426,0.2553,0.2533,0.2436,0.2429,0.2502,0.2493,0.259,0.259,0.259,0.259,0.2589,0,0.1435,0.1445,0.153,0.154,0.1586,0.1658,0.1746,0.1834,0.1973,0.2063,0.2196,0.228,0.2386,0.2471,0.2491,0.25,0.26,0.2436,0.2446,0.2521,0.2513,0.2513,0.2502,0.2595,0.2594,0.2593,0.2592,0,0.1348,0.1407,0.1437,0.1527,0.1561,0.1605,0.1741,0.1808,0.1965,0.2096,0.2155,0.2335,0.2457,0.2541,0.2637,0.2559,0.2577,0.2554,0.2658,0.2672,0.2422,0.2411,0.2465,0.246,0.2457,0.2454,0.2451,0,0.1299,0.1303,0.1414,0.146,0.1507,0.1589,0.165,0.1794,0.1868,0.2104,0.2151,0.2343,0.2445,0.2484,0.256,0.2605,0.2565,0.2553,0.2436,0.2398,0.2405,0.24,0.2395,0.2445,0.2444,0.2443,0.2443,0,0.1193,0.1255,0.1294,0.1387,0.1465,0.1526,0.1623,0.1661,0.1835,0.1997,0.2117,0.2196,0.2337,0.2405,0.2465,0.2475,0.2538,0.2515,0.2521,0.2411,0.2376,0.2385,0.2384,0.243,0.2432,0.2433,0.2434,0,0.1139,0.1147,0.1229,0.1306,0.1395,0.1437,0.1497,0.1584,0.1672,0.1918,0.1947,0.2159,0.2318,0.2341,0.2382,0.2394,0.2353,0.2245,0.2265,0.2279,0.2142,0.2065,0.203,0,0,0,0,0,0.1068,0.1077,0.1135,0.1219,0.1299,0.135,0.1466,0.1533,0.1696,0.1737,0.1838,0.1962,0.2064,0.2159,0.2138,0.2288,0.2348,0.2248,0.2228,0.2361,0.2375,0.2225,0,0,0,0,0,0,0.1038,0.1071,0.1099,0.1126,0.1158,0.1225,0.1295,0.1404,0.1433,0.1616,0.1693,0.183,0.1968,0.2073,0.2102,0.2127,0.2068,0.2366,0.236,0.2352,0.2366,0.2377,0.2228,0,0,0,0,0]},{"header":{"parameterUnit":"m.s-1","parameterCategory":2,"la1":30.2991,"la2":30.254,"lo1":-89.0895,"lo2":-89.0444,"dy":0.0017,"dx":0.0017,"nx":28,"ny":28,"refTime":"2024-08-04T21:00:00:Z","depth":"4","parameterNumber":3,"parameterNumberName":"V-component_of_CURRENTS"},"data":[0,0,0,0,0,0,0,0,0,0,0,0,0,0,0,0,0,0,0,0,0,0,0,0,0,0,0,0,0,0,0,0,0,0,0,0,0,0,0,0,0,0,0,0,0,0,0,0,0,0,0,0,0,0,0,0,0,0,0.0229,0.0228,0,0.018,0.018,0.0179,0.0163,0.0163,0.0164,0.0164,0.0077,0.0075,0.0072,0,0,0,0,0,0,0,0,0,0,0,0,0,0.0257,0.0256,0.0229,0.0228,0.0228,0.018,0.018,0.0179,0.0163,0.0163,0.0164,0.0164,0.0078,0.0075,0.0072,0,0,0,0,0,0,0,0,0,0,0,0,0,0.023,0.0256,0.0229,0.0214,0.0213,0.0181,0.018,0.0179,0.0163,0.0163,0.0164,0.0164,0.0079,0.0076,0.0072,0.0041,0,0,0.006,0.0059,0,0,0,0,0,0,0,0,0.0231,0.0229,0.0217,0.0215,0.0213,0.0178,0.0158,0.0131,0.0163,0.0182,0.0164,0.0164,0.0108,0.0102,0.0092,0.0037,0.0034,0.006,0.0058,0.0056,0.0055,0,0,0,0,0,0,0,0.0233,0.023,0.0209,0.0216,0.0214,0.0193,0.019,0.0152,0.0142,0.018,0.0179,0.0174,0.0106,0.0095,0.0089,0.0032,0.006,0.0057,0.0054,0.0053,-0.004,-0.004,0,0,0,0,0,0,0.0242,0.0233,0.0211,0.0208,0.0224,0.0192,0.0189,0.0189,0.0143,0.0137,0.0173,0.0173,0.0102,0.0094,0.0086,0.0069,0.0056,0.0052,0.005,-0.004,-0.004,-0.0041,0,0,0,0,0,0,0.0243,0.0241,0.0213,0.0219,0.0214,0.0192,0.0192,0.0188,0.0181,0.0139,0.0132,0.0172,0.0102,0.0092,0.0056,0.0065,0.0051,0.0047,-0.004,-0.004,-0.004,0.0021,0,0,0,0,0,0,0.0244,0.0242,0.0244,0.022,0.0214,0.0198,0.0191,0.0187,0.0177,0.0177,0.0135,0.0127,0.0101,0.0062,0.0053,0.0059,0.0044,-0.004,-0.004,-0.004,0.0019,0.0022,0.0025,0,0,0,0,0,0.0245,0.0246,0.0245,0.0242,0.0219,0.0198,0.0193,0.0177,0.0177,0.0173,0.0146,0.0129,0.0053,0.0059,0.0047,0.0054,-0.0039,-0.004,-0.004,0.0017,0.0022,0.0025,0,0,0,0,0,0,0.0254,0.0243,0.0242,0.0239,0.0223,0.0195,0.019,0.018,0.0156,0.0156,0.012,0.011,0.0083,0.0055,0.0062,0.0024,0.0006,0.0003,0.0053,0.0057,0.006,0.0094,0.0041,0,0,0,0,0,0.026,0.026,0.0243,0.0239,0.0235,0.0215,0.0205,0.0195,0.017,0.0161,0.0132,0.01,0.0071,0.0055,0.002,-0.0004,-0.0031,-0.0007,-0.0004,-0.0,0.0018,-0.0018,-0.0015,-0.0042,-0.0042,-0.0042,0,0,0.0261,0.0255,0.0255,0.0241,0.023,0.0229,0.021,0.0198,0.02,0.0153,0.0143,0.0106,0.0065,0.0042,0.0028,0.0021,-0.0012,-0.0001,0.0002,0.0019,-0.0018,-0.0015,-0.0012,-0.0042,-0.0042,-0.0042,0,0,0.0264,0.0262,0.0266,0.026,0.0247,0.0237,0.0237,0.0214,0.0209,0.0188,0.016,0.0134,0.0081,0.0064,0.0046,0.0045,0.0005,0.0027,0.0074,0.0039,0.0042,0.0044,-0.0002,-0.0005,0.0032,0.0033,0.0033,0,0.0265,0.0279,0.0261,0.0266,0.0273,0.0246,0.026,0.0243,0.0212,0.0215,0.0192,0.0137,0.0099,0.0087,0.0088,0.0056,0.0022,0.0066,0.0046,0.0047,0.0048,0.0001,-0.0003,0.0035,0.0035,0.0035,0.0034,0,0.0276,0.0291,0.0293,0.0301,0.0299,0.0305,0.0291,0.029,0.0279,0.0263,0.0245,0.0191,0.0166,0.0143,0.0115,0.0106,0.0074,0.0053,0.0042,0.0055,0.0003,-0.0001,0.004,0.0038,0.0038,0.0037,0,0,0.027,0.0299,0.0302,0.0334,0.0328,0.0336,0.0343,0.0351,0.0372,0.0325,0.0341,0.0285,0.0258,0.0236,0.0193,0.0163,0.013,0.0117,0.0113,0.0083,0.004,0.0016,0.0008,0.0102,0.0102,0.0102,-0.0004,0,0.0291,0.033,0.0333,0.0381,0.0409,0.0407,0.0425,0.0426,0.0412,0.0411,0.0361,0.0347,0.0291,0.0282,0.0242,0.0157,0.0122,0.016,0.0023,0.0019,0.0006,0.0004,0.0101,-0.0007,-0.0009,-0.0009,-0.001,0,0.0306,0.0339,0.0396,0.0463,0.0475,0.0499,0.0548,0.0559,0.0545,0.0533,0.0503,0.0449,0.0399,0.035,0.0222,0.0244,0.0157,0.0086,0.008,0.004,-0.0013,-0.0022,-0.0019,-0.0019,-0.0018,-0.0017,-0.0017,0,0.0337,0.039,0.0452,0.047,0.0524,0.0565,0.0595,0.0602,0.0629,0.0611,0.0613,0.0534,0.0498,0.0382,0.0226,0.0223,0.0074,0.005,-0.0055,-0.0059,-0.0031,-0.0032,-0.0028,-0.0028,-0.0028,-0.0027,-0.0027,0,0.0369,0.0421,0.0481,0.0519,0.0603,0.0624,0.0702,0.0713,0.073,0.0758,0.0684,0.0667,0.0505,0.0391,0.0249,0.0077,0.0087,-0.0041,-0.0081,-0.0007,-0.0004,-0.0036,-0.0035,-0.0031,-0.003,-0.003,-0.0029,0,0.0397,0.0434,0.0516,0.0594,0.0624,0.069,0.0776,0.0824,0.0833,0.0863,0.0861,0.0762,0.0612,0.0435,0.0234,0.0114,-0.0051,-0.0112,-0.0025,-0.0061,-0.0168,-0.0163,-0.0233,-0.0235,-0.0236,-0.0237,-0.0238,0,0.0415,0.0459,0.0568,0.0623,0.0668,0.0762,0.0824,0.0871,0.0913,0.0911,0.092,0.0799,0.0706,0.0408,0.0214,-0.0056,-0.0093,-0.018,-0.0163,-0.0153,-0.0186,-0.0179,-0.0173,-0.024,-0.0241,-0.0241,-0.0241,0,0.0449,0.0492,0.056,0.0668,0.0754,0.0847,0.0934,0.097,0.1015,0.1022,0.0965,0.0813,0.0641,0.0404,0.0195,-0.0,-0.0125,-0.0195,-0.0193,-0.0178,-0.0163,-0.0192,-0.0185,-0.0246,-0.0245,-0.0245,-0.0245,0,0.0471,0.0524,0.0612,0.0709,0.0808,0.0896,0.0949,0.0996,0.1038,0.1033,0.1003,0.0826,0.0723,0.0431,0.0233,0.0042,-0.0005,-0.0065,-0.007,-0.0068,0.0009,0.0053,0.0009,0,0,0,0,0,0.0487,0.0549,0.064,0.0749,0.0843,0.0908,0.1001,0.1044,0.1082,0.1052,0.1034,0.0873,0.0583,0.0455,0.0261,0.0193,-0.0049,-0.0042,-0.0122,-0.0272,-0.0267,-0.0207,0,0,0,0,0,0,0.0502,0.0589,0.064,0.0754,0.0831,0.0942,0.1008,0.104,0.1025,0.1029,0.088,0.0818,0.0536,0.0695,0.0256,0.0197,0.0118,-0.0172,-0.0176,-0.0275,-0.027,-0.0266,-0.0203,0,0,0,0,0]}]]